Regional Weather Roundup
Issued by NWS

Home | Current Version | Previous Version | Text Only | Print | Product List | Glossary On
Versions: 1 2 3 4 5 6 7 8 9 10 11 12 13 14 15 16 17 18 19 20 21 22 23 24 25 26 27 28 29 30 31 32 33 34 35 36 37 38 39 40 41 42 43 44 45 46 47 48 49 50
000
ASUS42 KKEY 250010
RWRKEY

FLORIDA REGIONAL WEATHER ROUNDUP FOR THE FLORIDA KEYS
NATIONAL WEATHER SERVICE KEY WEST FLORIDA
800 PM EDT SUN JUL 24 2016

...SOUTH FLORIDA AND THE KEYS...

CITY           SKY/WX    TMP DP  RH WIND       PRES   REMARKS
FORT MYERS     CLOUDY    80  71  74 W13       30.05R
SW REGIONAL AP CLEAR     82  71  69 S7        30.05R
NAPLES         PTCLDY    81  71  71 CALM      30.04R
MIAMI          MOCLDY    83  72  69 SE7       30.04R
WEST KENDALL   CLOUDY    80  73  79 SE6       30.04R
HOMESTEAD      MOCLDY    83  74  74 E3        30.04R
MARATHON       MOCLDY    83  74  74 E5        30.04R
BOCA CHICA NAS CLOUDY    84  74  71 SE6       30.05R HX  91
KEY WEST INTL  CLOUDY    84  76  76 E8        30.05R HX  93

...INTERNATIONAL WEATHER...

CITY           SKY/WX    TMP DP  RH WIND       PRES   REMARKS
NASSAU BAHAMAS MOCLDY    86  75  70 E5        30.05F HX  95
CANCUN MEXICO  CLOUDY    81  75  83 N2        29.99R
COZUMEL MEXICO CLOUDY    82  73  74 SE3       29.99R

ADJACENT COASTAL WATERS...

STATION/POSITION TIME  SKY/WX   TEMP    WIND        PRES    WAVE
                                AIR SEA DIR/SP/G            HT/PER
                 (UTC)          (F)     (DEG/KT/KT) (MB)    (FT/S)
PULASKI SHOAL LI 0000            83     110/  6/  7 1017.6R
SAND KEY         2350            83     120/  6/  7 1017.9R
LONG KEY         0000            83 86  130/  7/  8 1017.7R
FOWEY ROCKS      0000            82 85  100/ 11/ 11 1017.8R

$$



USA.gov is the U.S. government's official web portal to all federal, state and local government web resources and services.